Content
SEND FEEDBACK

Daily
Averages
Monthly
Summary
United States of America

EATON, OHIO


Home > North America > United States > Ohio
Elevation: 1016 feet     Latitude: 39 43N     Longitude: 084 37W

WEATHER
 
SELECT A DAY
Number of Records: 197,785;   Date Range: 4/25/06 - 10/22/14
 
SHARE

PRINT THIS DATA

[ ← Previous Day ]
WEATHER ALMANAC - JANUARY 23, 2013
[ Next Day → ]
[ °C ]   °F
Weather ElementAverageHighLow
Temperature17.8 °F21 °F (5:35 pm)12.7 °F (4:35 am)
Dewpoint7.9 °F16 °F (10:55 pm)1.9 °F (1:55 am)
Humidity66 %86 % (6:15 am)51 % (11:35 am)
Barometer30.26 in30.36 in (2:35 am)30.11 in (10:55 pm)
Wind Speed4.8 mph15 mph (2:35 pm)
Wind Gust18.4 mph (1:15 pm)
Weather ElementAverage
Visibility9.8 mi
Wind DirectionSSE (141.7 °)

Weather ElementTotal
Precipitation---
Heating Degree Days48.2 (Base 65)
Averaged from 71 records on January 23, 2013
WEATHER CONDITIONS BREAKOUT
WIND DIRECTION BREAKOUT
WEATHER BY HOUR - JANUARY 23, 2013
[ °C ]   °F
Local TimeTemperatureDewpointHumidityBarometerVisibilityWind DirectionWind SpeedGust SpeedPrecipitationEventsConditions
12:35 AM15.3 °F2.7 °F58 %30.35 in10.0 miWest (270°)5.8 mphOvercast
12:55 AM15.6 °F2.5 °F56 %30.35 in10.0 miWest (280°)6.9 mphOvercast
1:15 AM15.8 °F2.1 °F55 %30.35 in10.0 miWest (270°)5.8 mphOvercast
1:35 AM15.8 °F2.7 °F56 %30.35 in10.0 miWest (260°)6.9 mphOvercast
1:55 AM15.4 °F1.9 °F55 %30.35 in10.0 miWest (280°)9.2 mphOvercast
2:15 AM15.3 °F2.7 °F58 %30.35 in10.0 miWest (270°)10.4 mphOvercast
2:35 AM15.3 °F2.3 °F57 %30.36 in10.0 miWest (280°)8.1 mphOvercast
2:55 AM15.3 °F2.8 °F58 %30.36 in10.0 miWest (270°)5.8 mphOvercast
3:15 AM15.3 °F3.6 °F60 %30.36 in10.0 miWest (280°)5.8 mphOvercast
3:35 AM15.3 °F3.4 °F59 %30.35 in10.0 miWest (270°)5.8 mphOvercast
3:55 AM15.3 °F3.7 °F60 %30.35 in10.0 miWest (280°)5.8 mphScattered Clouds
4:15 AM13.3 °F4.3 °F67 %30.35 in10.0 miNNW (340°)3.5 mphClear
4:35 AM12.7 °F4.1 °F68 %30.34 in10.0 miCalmClear
4:55 AM12.7 °F5.9 °F74 %30.35 in10.0 miCalmClear
5:15 AM12.7 °F7.5 °F80 %30.35 in10.0 miCalmScattered Clouds
5:35 AM12.7 °F8.6 °F84 %30.35 in10.0 miCalmOvercast
5:55 AM12.7 °F8.2 °F82 %30.35 in10.0 miCalmOvercast
6:15 AM12.7 °F9.1 °F86 %30.35 in10.0 miCalmOvercast
6:35 AM12.7 °F7.3 °F79 %30.34 in10.0 miCalmOvercast
6:55 AM13.8 °F7.2 °F75 %30.35 in10.0 miCalmOvercast
7:15 AM14.0 °F6.8 °F73 %30.35 in10.0 miCalmOvercast
7:35 AM15.1 °F7.7 °F73 %30.35 in10.0 miCalmOvercast
7:55 AM15.3 °F6.8 °F69 %30.35 in10.0 miSW (230°)5.8 mphOvercast
8:15 AM15.3 °F6.6 °F69 %30.35 in10.0 miWSW (240°)4.6 mphOvercast
8:35 AM15.3 °F6.1 °F67 %30.35 in10.0 miWSW (240°)6.9 mphOvercast
8:55 AM15.3 °F5.4 °F65 %30.35 in10.0 miSW (230°)8.1 mphOvercast
9:15 AM15.4 °F4.3 °F61 %30.35 in10.0 miWSW (240°)8.1 mphOvercast
9:35 AM16.0 °F4.6 °F61 %30.35 in10.0 miWSW (240°)5.8 mphOvercast
9:55 AM16.7 °F5.2 °F61 %30.35 in10.0 miSW (230°)8.1 mphOvercast
10:15 AM17.6 °F5.0 °F58 %30.34 in10.0 miWSW (240°)8.1 mphOvercast
10:35 AM17.6 °F3.9 °F55 %30.34 in10.0 miSW (220°)8.1 mphOvercast
10:55 AM17.6 °F3.4 °F54 %30.34 in10.0 miWSW (240°)6.9 mphOvercast
11:15 AM18.0 °F3.2 °F53 %30.33 in10.0 miWSW (250°)8.1 mphOvercast
11:35 AM19.0 °F3.4 °F51 %30.32 in10.0 miWSW (250°)11.5 mphOvercast
11:55 AM19.0 °F4.3 °F53 %30.31 in10.0 miSW (220°)11.5 mphOvercast
12:15 PM19.0 °F4.3 °F53 %30.30 in10.0 miSW (220°)12.7 mph16.1 mphOvercast
12:35 PM19.4 °F4.3 °F52 %30.29 in10.0 miSW (220°)10.4 mph16.1 mphOvercast
12:55 PM20.3 °F5.9 °F54 %30.27 in10.0 miSW (220°)11.5 mphSnowLight Snow
1:15 PM20.3 °F7.2 °F57 %30.25 in10.0 miSW (220°)12.7 mph18.4 mphOvercast
1:35 PM19.4 °F7.9 °F61 %30.25 in10.0 miWSW (250°)10.4 mphOvercast
1:55 PM20.3 °F7.9 °F59 %30.24 in10.0 miWSW (240°)13.8 mphOvercast
2:15 PM20.3 °F7.9 °F59 %30.23 in10.0 miWSW (250°)9.2 mphOvercast
2:35 PM20.3 °F8.2 °F60 %30.22 in10.0 miWSW (240°)15.0 mphOvercast
2:55 PM20.3 °F7.9 °F59 %30.21 in10.0 miWSW (240°)10.4 mph16.1 mphSnowLight Snow
3:15 PM20.3 °F8.1 °F59 %30.20 in10.0 miSW (230°)9.2 mphOvercast
3:35 PM20.3 °F8.4 °F60 %30.20 in5.0 miSW (220°)9.2 mphSnowLight Snow
3:55 PM20.3 °F11.3 °F68 %30.19 in4.0 miSW (230°)8.1 mphSnowLight Snow
4:15 PM20.3 °F12.4 °F71 %30.19 in5.0 miSW (220°)4.6 mphSnowLight Snow
4:35 PM20.3 °F12.2 °F71 %30.19 in10.0 miSW (220°)5.8 mphOvercast
4:55 PM20.3 °F11.1 °F68 %30.18 in10.0 miWSW (240°)3.5 mphOvercast
5:15 PM20.3 °F9.5 °F63 %30.17 in10.0 miCalmOvercast
5:35 PM21.0 °F9.0 °F60 %30.16 in10.0 miCalmOvercast
5:55 PM21.0 °F9.7 °F62 %30.16 in10.0 miCalmOvercast
6:15 PM21.0 °F9.1 °F60 %30.15 in10.0 miCalmOvercast
6:35 PM21.0 °F9.0 °F60 %30.15 in10.0 miCalmOvercast
6:55 PM21.0 °F8.6 °F59 %30.15 in10.0 miCalmOvercast
7:15 PM20.8 °F11.8 °F68 %30.15 in10.0 miNNE (30°)3.5 mphOvercast
7:35 PM20.5 °F12.4 °F71 %30.15 in10.0 miNE (40°)3.5 mphOvercast
7:55 PM20.3 °F12.6 °F72 %30.14 in10.0 miCalmOvercast
8:15 PM20.3 °F13.1 °F74 %30.14 in10.0 miENE (60°)3.5 mphOvercast
8:35 PM20.3 °F14.0 °F77 %30.14 in10.0 miNE (50°)3.5 mphOvercast
8:55 PM20.3 °F14.0 °F77 %30.14 in10.0 miCalmOvercast
9:15 PM20.3 °F14.0 °F77 %30.13 in10.0 miCalmOvercast
9:35 PM20.3 °F14.7 °F79 %30.12 in10.0 miCalmOvercast
9:55 PM20.3 °F14.9 °F80 %30.12 in10.0 miCalmOvercast
10:15 PM20.3 °F14.9 °F80 %30.12 in10.0 miCalmOvercast
10:35 PM20.3 °F15.3 °F81 %30.12 in10.0 miCalmOvercast
10:55 PM20.3 °F16.0 °F83 %30.11 in10.0 miCalmOvercast
11:15 PM20.3 °F15.6 °F82 %30.11 in10.0 miCalmOvercast
11:35 PM20.5 °F15.8 °F82 %30.11 in10.0 miCalmOvercast
11:55 PM21.0 °F15.4 °F79 %30.12 in10.0 miCalmOvercast
Hourly data recorded from KMWO, located miles away from Eaton, Ohio







STORIES FROM OUR PARTNERS